[Iaude] MPEC S49: 2016 SE1

mpec at si.edu mpec at si.edu
Thu Sep 29 16:08:53 EDT 2016


M.P.E.C. 2016-S49                                Issued 2016 Sept. 26, 17:59 UT
 
     The Minor Planet Electronic Circulars contain information on unusual
         minor planets and routine data on comets.  They are published
    on behalf of Division F of the International Astronomical Union by the
          Minor Planet Center, Smithsonian Astrophysical Observatory,
                          Cambridge, MA 02138, U.S.A.

             Prepared using the Tamkin Foundation Computer Network

                              MPC at CFA.HARVARD.EDU
            URL http://www.minorplanetcenter.net/    ISSN 1523-6714


                                   2016 SE1
 
Observations:
     K16S01E* C2016 09 21.52888 02 30 53.930-25 12 55.82         18.9 rLES049F51
     K16S01E  C2016 09 21.54015 02 30 49.837-25 11 31.33         18.8 rLES049F51
     K16S01E  C2016 09 21.55156 02 30 45.682-25 10 05.58         18.8 rLES049F51
     K16S01E  C2016 09 21.56284 02 30 41.591-25 08 40.63         18.9 rLES049F51
     K16S01E  C2016 09 22.42228 02 26 20.43 -23 24 14.3          18.9 RoES049926
     K16S01E  C2016 09 22.42556 02 26 19.31 -23 23 51.1          19.0 RoES049926
     K16S01E  C2016 09 22.42887 02 26 18.22 -23 23 27.7          18.9 RoES049926
     K16S01E  C2016 09 22.54427 02 25 44.873-23 09 36.75         18.7 iLES049F51
     K16S01E  C2016 09 22.55591 02 25 40.929-23 08 13.64         19.0 iLES049F51
     K16S01E  C2016 09 22.56755 02 25 37.055-23 06 51.57         18.6 iLES049F51
     K16S01E KC2016 09 23.36854 02 21 52.92 -21 35 13.8          18.5 RqES049H36
     K16S01E KC2016 09 23.37088 02 21 52.17 -21 34 58.5          18.9 RqES049H36
     K16S01E KC2016 09 23.37557 02 21 50.72 -21 34 27.4          18.9 RqES049H36
     K16S01E  C2016 09 24.95480 02 15 07.91 -18 46 03.5                qES049246
     K16S01E  C2016 09 24.95648 02 15 07.52 -18 45 53.7                qES049246
     K16S01E  C2016 09 24.95924 02 15 06.81 -18 45 37.9          18.6 RqES049246
     K16S01E  C2016 09 24.95937 02 15 06.77 -18 45 37.0          18.5 RqES049246
     K16S01E  C2016 09 24.95950 02 15 06.65 -18 45 35.3                qES049246
     K16S01E KC2016 09 25.00445 02 14 54.98 -18 41 00.4          18.5 RtES049104
     K16S01E KC2016 09 25.01172 02 14 53.04 -18 40 16.8          19.1 RtES049104
     K16S01E KC2016 09 25.01898 02 14 51.06 -18 39 33.2          18.7 RtES049104
     K16S01E KC2016 09 25.27305 02 13 53.10 -18 13 46.4          18.3 RoES049291
     K16S01E KC2016 09 25.27445 02 13 52.74 -18 13 38.2          18.3 RoES049291
     K16S01E KC2016 09 25.27582 02 13 52.36 -18 13 30.2          18.4 RoES049291
     K16S01E  C2016 09 25.40466 02 13 17.63 -18 00 49.0          20.0 RoES049926
     K16S01E  C2016 09 25.40953 02 13 16.28 -18 00 21.3          18.8 RoES049926
     K16S01E KC2016 09 25.63685 02 12 24.74 -17 36 27.8          19.2 VqES049E23
     K16S01E KC2016 09 25.63880 02 12 24.27 -17 36 16.3          19.3 VqES049E23
     K16S01E KC2016 09 25.64144 02 12 23.64 -17 36 00.3                qES049E23
     K16S01E KC2016 09 26.03993 02 10 52.48 -16 59 35.4                qES049204
     K16S01E KC2016 09 26.04694 02 10 50.69 -16 58 55.5          18.7 RqES049204
     K16S01E KC2016 09 26.05385 02 10 48.96 -16 58 16.0                qES049204
 
Observer details:
104 San Marcello Pistoiese.  Observer P. Bacci.  Measurers P. Bacci, L. Tesi,
    G. Fagioli.  0.60-m f/4 reflector + CCD.
204 Schiaparelli Observatory.  Observer L. Buzzi.  0.60-m f/4.64 reflector
    + CCD.
246 Klet Observatory-KLENOT.  Observers M. Tichy, J. Ticha.  Measurer M. Tichy.
    1.06-m KLENOT Telescope + CCD.
291 LPL/Spacewatch II.  Observer T. H. Bressi.  1.8-m f/2.7 reflector + CCD.
926 Tenagra II Observatory.  Observers M. Schwartz, P. R. Holvorcem.  Measurer
    M. Schwartz.  0.81-m f/7 Ritchey-Chretien + CCD.
E23 Arcadia.  Observer A. Hidas.  0.35-m f/1.9 reflector + CCD.
F51 Pan-STARRS 1, Haleakala.  Observers B. Gibson, T. Goggia, S. Kahale,
    A. Schultz, M. Willman, N. Primak.  Measurers K. Chambers, S. Chastel,
    L. Denneau, H. Flewelling, M. Huber, E. Lilly, E. Magnier, R. Wainscoat,
    C. Waters, R. Weryk, P. Veres.  1.8-m Ritchey-Chretien + CCD.
H36 Sandlot Observatory, Scranton.  Observer G. Hug.  0.56-m reflector + CCD.
 
Orbital elements:
2016 SE1                                                 Earth MOID = 0.0601 AU
Epoch 2016 July 31.0 TT = JDT 2457600.5                 MPC
M 354.81617              (2000.0)            P               Q
n   0.52042800     Peri.  274.53582     +0.66381818     +0.74644862
a   1.5307195      Node    37.19268     -0.65208109     +0.60808811
e   0.3691227      Incl.    4.40933     -0.36624538     +0.27026525
P   1.89           H   22.8           G   0.15           U   7
Residuals in seconds of arc
160921 F51  0.2-  0.0     160923 H36  0.6-  0.2+    160925 291  0.0   0.0
160921 F51  0.0   0.0     160923 H36  0.6-  0.3-    160925 291  0.2-  0.0
160921 F51  0.1-  0.0     160924 246  0.3-  0.5+    160925 926  0.5+  0.8+
160921 F51  0.0   0.0     160924 246  0.5+  0.1+    160925 926  0.1+  0.4-
160922 926  0.1+  0.5+    160924 246  0.9+  0.7-    160925 E23  1.3-  0.3-
160922 926  0.2-  0.2+    160924 246  0.8+  0.6-    160925 E23  0.6-  0.1-
160922 926  0.0   0.0     160924 246  0.4-  0.3+    160925 E23  0.4+  0.5+
160922 F51  0.4+  0.2-    160925 104  0.3-  0.3+    160926 204  0.0   0.3-
160922 F51  0.1-  0.4+    160925 104  0.2+  0.0     160926 204  0.2-  0.2-
160922 F51  0.3+  0.3-    160925 104  0.1+  0.2-    160926 204  0.1+  0.0
160923 H36  0.2-  0.7+    160925 291  0.1-  0.0

Ephemeris:
2016 SE1                 a,e,i = 1.53, 0.37, 4                   q = 0.9657
Date    TT    R. A. (2000) Decl.     Delta      r     Elong.  Phase     V
2016 08 27    10 32 08.3 -57 23 48   0.08024 0.9824    67.5   108.2    21.3
...
2016 09 11    04 14 00.6 -52 40 44   0.06175 1.0226   103.2    73.4    19.4
...
2016 09 19    02 45 52.8 -30 51 42   0.07382 1.0519   128.4    48.5    19.1
...
2016 09 25    02 14 54.8 -18 40 08   0.09078 1.0769   143.2    33.9    19.2
2016 09 26    02 11 01.3 -17 02 04   0.09410 1.0813   145.3    31.8    19.2
2016 09 27    02 07 23.0 -15 29 59   0.09753 1.0857   147.4    29.9    19.2
...
2016 10 03    01 49 39.8 -08 03 24   0.1205  1.1134   158.2    19.5    19.4
...
2016 10 11    01 33 31.7 -01 29 57   0.1570  1.1527   169.1     9.5    19.7
...
2016 10 26    01 17 26.3 +05 20 08   0.2427  1.2317   166.9    10.6    20.8

A. U. Tomatic                (C) Copyright 2016 MPC           M.P.E.C. 2016-S49




More information about the Iaude mailing list